LFLLLFLC

Guest
Details From LFLL - Lyon Saint Exupery
To LFLC - Clermont-Ferrand_Auvergne
Flight Number -
Tags decoded
Created
Modified
Stats Distance 82 nm / 152 km
Max Altitude 0 ft / 0 m
Waypoints 3
Social Downloads 1
Likes 0
Share VATSIM

Download

Looking for another format? Having issues loading an existing format? Contact us
Advertisement - Login to hide

Notes

Requested: LFLL EB LFLC

Route

LFLL EB LFLC

ID Type Via Altitude Latitude Longitude Leg Dist Tot Dist Heading (true) Name
O LFLL APT - 0 ft / 0 m 45.72581˚ 5.09075˚ - 0 nm - Lyon Saint Exupery
EB NDB - 0 ft / 0 m 45.63778˚ 4.28389˚ 34 nm 34 nm 261° / 261° Saint Etienne Boutheon NDB
O LFLC APT - 0 ft / 0 m 45.78671˚ 3.16997˚ 47 nm 81 nm 281° / 280° Clermont-Ferrand_Auvergne

Altitude Profile

Advertisement - Login to hide

LFLL

Details ICAO LFLL (LYS)
Name Lyon Saint Exupery
Region France
Timezone Europe/Paris (UTC+2.0)
Stats Elevation 820 ft / 250 m (AMSL)
Location 45.725812° 5.090748°
Runways 2
Magnetic Variation 1.540° E

METAR

LFLL 202330Z 11003KT 080V140 CAVOK 15/09 Q1014 NOSIG

Decode

TAF

TAF AMD LFLL 201927Z 2019/2124 18005KT CAVOK PROB40 TEMPO 2115/2124 -SHRA FEW045CB BKN050TCU PROB30 TEMPO 2115/2121 -TSRA SCT045CB BKN050TCU

Decode

Departure Runways

ID Width Length Bearing (true) Bearing (mag) Surface Threshold Offset Overrun Length
18L 148 ft / 45 m 8,798 ft / 2,682 m 175.13° 173.59° Asphalt 33 ft / 10 m 52 ft / 16 m
18R 148 ft / 45 m 13,149 ft / 4,008 m 175.14° 173.60° Asphalt 16 ft / 5 m 203 ft / 62 m
36L 148 ft / 45 m 13,149 ft / 4,008 m 355.15° 353.61° Asphalt 36 ft / 11 m 151 ft / 46 m
36R 148 ft / 45 m 8,798 ft / 2,682 m 355.13° 353.59° Asphalt 26 ft / 8 m 52 ft / 16 m

LFLC

Details ICAO LFLC (CFE)
Name Clermont-Ferrand_Auvergne
Region France
Timezone Europe/Paris (UTC+2.0)
Stats Elevation 1,089 ft / 332 m (AMSL)
Location 45.786712° 3.169967°
Runways 1
Magnetic Variation 1.033° E

METAR

LFLC 202330Z AUTO 17005KT 140V200 9999 BKN062 BKN074 BKN180 13/09 Q1014 NOSIG

Decode

TAF

TAF LFLC 202000Z 2021/2121 36005KT CAVOK BECMG 2021/2023 VRB03KT BECMG 2103/2106 18005KT PROB40 TEMPO 2116/2121 VRB10KT SHRA BKN050TCU

Decode

Destination Runways

ID Width Length Bearing (true) Bearing (mag) Surface Threshold Offset Overrun Length
08 148 ft / 45 m 9,878 ft / 3,011 m 81.95° 80.92° Asphalt 0 ft / 0 m 0 ft / 0 m
26 148 ft / 45 m 9,878 ft / 3,011 m 261.98° 260.95° Asphalt 476 ft / 145 m 0 ft / 0 m

Approach Navaids

Runway Type Ident Frequency Range Bearing (true) Bearing (mag) Slope Elevation
26 Localiser CF 111.10 MHz 27 nm / 50 km 261.98° 260.95° - 1,089 ft / 332 m (AMSL)
26 Glidescope CF 111.10 MHz 27 nm / 50 km 261.98° 260.95° 3.00° 1,089 ft / 332 m (AMSL)
26 DME CF 111.10 MHz 27 nm / 50 km - - - 1,089 ft / 332 m (AMSL)

Popular Alternatives